Terug naar catalogus

STARLINK-5953

ActiefCommunicatieVLEO
NORAD 56799·PAYLOAD·🇺🇸 United States

Gelanceerd May 31, 2023 vanaf Vandenberg Space Force Base

Loading…

Volgende Passages (komende 24 uur)

TLE

VersSource: CelesTrak SupGP

Epoch: Sep 14, 2026, 22:21 UTC

1 56799C 23078AJ  26257.93173611  .00005445  00000+0  45614-3 0  2576
2 56799  70.0013 227.3268 0002922 269.3980 184.1474 14.98341767    11

Volg STARLINK-5953 in realtime met AllMySat

Download on the App Store